Details for Delta Airlines at KSEA




Go Back


Latest METAR
Local Time

KSEA 220953Z 19010KT 10SM FEW020 BKN045 OVC060 17/12 A2987 RMK AO2 SLP120 T01670122
22/09/2018, 03:51:53

Description
Results
Delta Airlines Logo
Number of Pilots based at KSEA
0 Pilots Based here
Number of Delta Airlines Flights Departed from KSEA
4 Flights Departed
Number of Delta Airlines Flights Arrived at KSEA
2 Flights Arrived
Number of Delta Airlines Schedules Departing from KSEA
214 Schedules
Number of Delta Airlines Schedules Arriving at KSEA
225 Schedules
Number of Delta Airlines Schedules Departing from KSEA availible today
109 Schedules Today
Number of Delta Airlines Schedules Arriving at KSEA availible today
101 Schedules Today
Average Landing Rate at KSEA
-250 fpm
Delta Airlines Average Landing Rate at KSEA
-197 fpm
Total Fuel Purchased at KSEA by Delta Airlines
30,711.84 kgs / 67,707.32 lbs

Pilots Based at KSEA


Pilot ID
Pilot Name
Pilot Rank
No. of Flights
No. of Flying Hours
There are no pilots assigned to this hub!   Will you be the first?
Content